Location: Unspecified
(0.0000°N, 0.0000°E)
Time: 20:46:25
(UTC+00:00)

SNAP-3 ALICE - Visible Passes

Search period start: 12 January 2025 00:00
Search period end: 22 January 2025 00:00
Orbit: 449 x 622 km, 64.8° (Epoch: 12 January)

Date Brightness Start Highest point End Pass type
(mag) Time Alt. Az. Time Alt. Az. Time Alt. Az.
14 Jan ? 05:39:21 10° NNW 05:43:09 67° WSW 05:46:47 10° SSE visible
15 Jan ? 05:29:52 10° NW 05:33:35 50° WSW 05:37:06 10° S visible
16 Jan ? 05:21:08 15° NW 05:23:56 38° WSW 05:27:21 10° S visible
17 Jan ? 05:12:47 22° WNW 05:14:14 30° WSW 05:17:28 10° S visible
18 Jan ? 05:04:21 23° WSW 05:04:30 24° WSW 05:07:29 10° SSW visible
19 Jan ? 04:55:46 17° SW 04:55:46 17° SW 04:57:20 10° SSW visible
